Tiempo cada hora Barra Bonita

Hoy, 13 Mayo, Jueves

Tiempo Temperatura Precipitaciones Viento Presión Humedad
00:00 +17°C° 0.3 mm 4 mps 723 mmHg 95%
01:00 +17°C° 0.1 mm 4 mps 723 mmHg 95%
02:00 +17°C° 0.1 mm 4 mps 723 mmHg 95%
03:00 +17°C° 0.1 mm 4 mps 724 mmHg 94%
04:00 +15°C° 0 mm 4 mps 724 mmHg 94%
05:00 +15°C° 0 mm 4 mps 724 mmHg 94%
06:00 +15°C° 0 mm 4 mps 724 mmHg 94%
07:00 +16°C° 0 mm 5 mps 724 mmHg 89%
08:00 +17°C° 0 mm 5 mps 725 mmHg 84%
09:00 +19°C° 0 mm 5 mps 725 mmHg 79%
10:00 +21°C° 0 mm 5 mps 725 mmHg 70%
11:00 +22°C° 0 mm 5 mps 725 mmHg 61%
12:00 +25°C° 0 mm 4 mps 725 mmHg 53%
13:00 +25°C° 0 mm 4 mps 725 mmHg 52%
14:00 +25°C° 0 mm 5 mps 725 mmHg 52%
15:00 +25°C° 0 mm 5 mps 724 mmHg 52%
16:00 +23°C° 0 mm 4 mps 724 mmHg 56%
17:00 +22°C° 0 mm 4 mps 724 mmHg 59%
18:00 +20°C° 0 mm 3 mps 724 mmHg 63%
19:00 +19°C° 0 mm 4 mps 725 mmHg 70%
20:00 +18°C° 0 mm 4 mps 725 mmHg 77%
21:00 +15°C° 0 mm 4 mps 726 mmHg 84%
22:00 +15°C° 0 mm 4 mps 726 mmHg 86%
23:00 +14°C° 0 mm 4 mps 725 mmHg 88%

Mañana, 14 Mayo, Viernes

Tiempo Temperatura Precipitaciones Viento Presión Humedad
00:00 +14°C° 0 mm 4 mps 725 mmHg 90%
01:00 +14°C° 0 mm 4 mps 725 mmHg 91%
02:00 +13°C° 0 mm 4 mps 724 mmHg 92%
03:00 +13°C° 0 mm 4 mps 724 mmHg 93%
04:00 +13°C° 0 mm 3 mps 724 mmHg 93%
05:00 +13°C° 0 mm 3 mps 724 mmHg 94%
06:00 +12°C° 0 mm 3 mps 724 mmHg 95%
07:00 +14°C° 0 mm 3 mps 725 mmHg 87%
08:00 +17°C° 0 mm 3 mps 725 mmHg 79%
09:00 +19°C° 0 mm 3 mps 726 mmHg 71%
10:00 +21°C° 0 mm 3 mps 726 mmHg 63%
11:00 +24°C° 0 mm 3 mps 725 mmHg 56%
12:00 +26°C° 0 mm 3 mps 725 mmHg 48%
13:00 +27°C° 0 mm 2 mps 724 mmHg 46%
14:00 +28°C° 0 mm 2 mps 724 mmHg 43%
15:00 +28°C° 0 mm 1 mps 723 mmHg 40%
16:00 +27°C° 0 mm 1 mps 723 mmHg 45%
17:00 +25°C° 0 mm 1 mps 723 mmHg 50%
18:00 +23°C° 0 mm 1 mps 723 mmHg 55%
19:00 +23°C° 0 mm 2 mps 723 mmHg 58%
20:00 +21°C° 0 mm 3 mps 724 mmHg 62%
21:00 +21°C° 0 mm 3 mps 724 mmHg 65%
22:00 +20°C° 0 mm 3 mps 724 mmHg 69%
23:00 +20°C° 0 mm 3 mps 724 mmHg 73%

Pasado mañana, 15 Mayo, Sábado

Tiempo Temperatura Precipitaciones Viento Presión Humedad
00:00 +19°C° 0 mm 3 mps 724 mmHg 76%
01:00 +19°C° 0 mm 3 mps 723 mmHg 78%
02:00 +18°C° 0 mm 3 mps 723 mmHg 80%
03:00 +18°C° 0 mm 3 mps 723 mmHg 83%
04:00 +17°C° 0 mm 2 mps 723 mmHg 86%
05:00 +17°C° 0 mm 2 mps 723 mmHg 89%
06:00 +16°C° 0 mm 2 mps 723 mmHg 92%
07:00 +17°C° 0 mm 2 mps 724 mmHg 85%
08:00 +19°C° 0 mm 3 mps 724 mmHg 77%
09:00 +21°C° 0 mm 3 mps 725 mmHg 70%
10:00 +23°C° 0 mm 2 mps 725 mmHg 66%
11:00 +24°C° 0 mm 2 mps 725 mmHg 62%
12:00 +25°C° 0 mm 2 mps 724 mmHg 58%
13:00 +26°C° 0 mm 2 mps 724 mmHg 54%
14:00 +27°C° 0 mm 1 mps 723 mmHg 51%
15:00 +28°C° 0 mm 1 mps 723 mmHg 47%
16:00 +27°C° 0 mm 1 mps 723 mmHg 55%
17:00 +25°C° 0 mm 2 mps 723 mmHg 62%
18:00 +23°C° 0 mm 2 mps 723 mmHg 69%
19:00 +21°C° 0 mm 2 mps 723 mmHg 75%
20:00 +20°C° 0 mm 2 mps 724 mmHg 81%
21:00 +19°C° 0 mm 3 mps 724 mmHg 87%
22:00 +18°C° 0 mm 3 mps 724 mmHg 89%
23:00 +17°C° 0 mm 2 mps 724 mmHg 92%

16 Mayo, Domingo

Tiempo Temperatura Precipitaciones Viento Presión Humedad
00:00 +17°C° 0 mm 2 mps 724 mmHg 95%
01:00 +16°C° 0 mm 2 mps 724 mmHg 96%
02:00 +16°C° 0 mm 2 mps 723 mmHg 96%
03:00 +16°C° 0 mm 2 mps 723 mmHg 97%
04:00 +15°C° 0 mm 2 mps 723 mmHg 97%
05:00 +15°C° 0 mm 2 mps 723 mmHg 97%
06:00 +15°C° 0 mm 2 mps 723 mmHg 97%
07:00 +17°C° 0 mm 2 mps 724 mmHg 90%
08:00 +19°C° 0 mm 3 mps 725 mmHg 82%
09:00 +20°C° 0 mm 3 mps 725 mmHg 74%
10:00 +24°C° 0 mm 3 mps 725 mmHg 64%
11:00 +26°C° 0 mm 3 mps 725 mmHg 55%
12:00 +28°C° 0 mm 2 mps 725 mmHg 45%
13:00 +28°C° 0 mm 2 mps 724 mmHg 43%
14:00 +29°C° 0 mm 2 mps 723 mmHg 40%
15:00 +29°C° 0 mm 2 mps 723 mmHg 38%
16:00 +28°C° 0 mm 2 mps 723 mmHg 43%
17:00 +26°C° 0 mm 2 mps 723 mmHg 48%
18:00 +24°C° 0 mm 2 mps 723 mmHg 53%
19:00 +23°C° 0 mm 2 mps 723 mmHg 60%
20:00 +21°C° 0 mm 2 mps 723 mmHg 66%
21:00 +19°C° 0 mm 2 mps 724 mmHg 73%
22:00 +18°C° 0 mm 2 mps 724 mmHg 78%
23:00 +17°C° 0 mm 2 mps 724 mmHg 84%

17 Mayo, Lunes

Tiempo Temperatura Precipitaciones Viento Presión Humedad
00:00 +16°C° 0 mm 2 mps 724 mmHg 89%
01:00 +16°C° 0 mm 2 mps 723 mmHg 91%
02:00 +16°C° 0 mm 2 mps 723 mmHg 93%
03:00 +15°C° 0 mm 1 mps 723 mmHg 94%
04:00 +15°C° 0 mm 1 mps 723 mmHg 94%
05:00 +15°C° 0 mm 1 mps 723 mmHg 94%
06:00 +15°C° 0 mm 1 mps 723 mmHg 94%
07:00 +18°C° 0 mm 1 mps 724 mmHg 83%
08:00 +21°C° 0 mm 1 mps 724 mmHg 73%
09:00 +23°C° 0 mm 1 mps 725 mmHg 62%
10:00 +25°C° 0 mm 1 mps 724 mmHg 53%
11:00 +28°C° 0 mm 1 mps 724 mmHg 44%
12:00 +30°C° 0 mm 2 mps 724 mmHg 36%
13:00 +30°C° 0 mm 3 mps 723 mmHg 34%
14:00 +31°C° 0 mm 3 mps 723 mmHg 33%
15:00 +32°C° 0 mm 4 mps 722 mmHg 31%
16:00 +29°C° 0 mm 3 mps 722 mmHg 38%
17:00 +27°C° 0 mm 2 mps 722 mmHg 45%
18:00 +24°C° 0 mm 2 mps 722 mmHg 52%
19:00 +23°C° 0 mm 1 mps 722 mmHg 56%
20:00 +22°C° 0 mm 1 mps 722 mmHg 60%
21:00 +21°C° 0 mm 1 mps 722 mmHg 64%
22:00 +20°C° 0 mm 1 mps 723 mmHg 66%
23:00 +20°C° 0 mm 1 mps 723 mmHg 68%

18 Mayo, Martes

Tiempo Temperatura Precipitaciones Viento Presión Humedad
00:00 +19°C° 0 mm 1 mps 723 mmHg 70%
01:00 +19°C° 0 mm 1 mps 722 mmHg 71%
02:00 +19°C° 0 mm 1 mps 722 mmHg 72%
03:00 +18°C° 0 mm 1 mps 722 mmHg 73%
04:00 +18°C° 0 mm 1 mps 722 mmHg 75%
05:00 +16°C° 0 mm 1 mps 722 mmHg 77%
06:00 +16°C° 0 mm 1 mps 723 mmHg 80%
07:00 +18°C° 0 mm 2 mps 723 mmHg 72%
08:00 +20°C° 0 mm 2 mps 724 mmHg 64%
09:00 +23°C° 0 mm 2 mps 724 mmHg 57%
10:00 +25°C° 0 mm 2 mps 724 mmHg 51%
11:00 +27°C° 0 mm 2 mps 724 mmHg 44%
12:00 +30°C° 0 mm 1 mps 724 mmHg 38%
13:00 +30°C° 0 mm 1 mps 723 mmHg 35%
14:00 +31°C° 0 mm 1 mps 723 mmHg 32%
15:00 +31°C° 0 mm 2 mps 722 mmHg 29%
16:00 +29°C° 0 mm 2 mps 722 mmHg 35%
17:00 +26°C° 0 mm 2 mps 722 mmHg 40%
18:00 +24°C° 0 mm 2 mps 722 mmHg 46%
19:00 +21°C° 0 mm 2 mps 722 mmHg 56%
20:00 +20°C° 0 mm 2 mps 723 mmHg 65%
21:00 +18°C° 0 mm 3 mps 723 mmHg 75%
22:00 +18°C° 0 mm 3 mps 724 mmHg 80%
23:00 +17°C° 0 mm 3 mps 724 mmHg 86%
Mostrar más

Necesitamos Su Consentimiento

Meteoprog y nuestros Proveedores de Servicios pueden almacenar y acceder a sus datos personales como cookies, identificadores de dispositivo u otras tecnologías similares de su dispositivo y procesar dichos datos para personalizar contenido y anuncios, además de ofrecer funciones de redes sociales y analizar el tráfico.

  • Almacenar y/o acceder a información en su dispositivo

    Se puede almacenar o acceder a cookies, identificadores de dispositivo u otra información de su dispositivo para los fines anteriormente indicados.

  • Anuncios y contenido personalizados, medición de anuncios y contenido, percepciones del público, y desarrollo de productos

    Los anuncios y el contenido pueden personalizarse en base a su perfil. Se pueden añadir más datos para personalizar mejor los anuncios y contenidos. Se puede medir el rendimiento de los anuncios y contenidos. Se puede obtener la percepción sobre el público que ha visto los anuncios y contenidos. Dichos datos pueden usarse para desarrollar o mejorar la experiencia del usuario, sistemas y software.

Al hacer clic en ‘Estoy De Acuerdo’ usted permitirá el uso de las cookies, identificadores de dispositivo, balizas web u otras tecnologías similares indicadas. Su configuración puede cambiarse desde el navegador de su dispositivo.

Para ciertos fines, los intereses legítimos pueden ser considerados por encima del consentimiento. Puede leer más sobre ello en nuestra Política de Privacidad y Cookies.